Location: Beddau
(51.5575°N, 3.3561°W)
Time: 17:57:16
(UTC+00:00)

ERS-2 - Pass Details

Date: 03 March 2021
Orbit: 492 x 496 km, 98.6° (Epoch: 13 April)

Event Time Altitude Azimuth Distance (km) Brightness Sun altitude
Rises 19:55:31 0° 8° (N) 2,597 5.8 -19.0°
Reaches altitude 10° 19:57:43 10° 360° (N) 1,709 5.0 -19.3°
Maximum altitude 20:01:04 35° 294° (WNW) 830 3.8 -19.8°
Drops below altitude 10° 20:04:24 10° 228° (SW) 1,697 5.2 -20.3°
Sets 20:06:34 0° 219° (SW) 2,576 6.0 -20.7°
